STARLINK-11306, 61254

Orbit data source: Space-Track

STARLINK-11306, 61254 is a payload satellite owned by SpaceX/Seattle (US) in LEO that was launched on Wed, 25 Sep 2024 UTC via an FALCON 9 launch vehicle from the Air Force Western Test Range (AFWTR). Payload-class satellites include a variety of spacecraft equipped with specific instruments for various scientific and technological missions. These include communications satellites like Starlink; space stations such as the ISS; scientific satellites like the Hubble; Earth observation satellites from companies like Planet Labs, Umbra, and HawkEye 360; GPS; miniature CubeSats for education and research; and military/defense satellites.

Loading next visibility...
Identifier
61254, 2024-175M
Orbit
LEO
Country
Flag of USUS
Related business
Manufacturer
SpaceX/Seattle
Mission
Operational Commercial Communications
Bus & Motor
STARLINK V2MD, Unknown motor
Mass
960 kg wet, ~910 kg dry
Launch date (UTC)
2024-09-25 (2 years ago)
Launch vehicle
FALCON 9
Launch site
Air Force Western Test Range (AFWTR)
Object type
Payload
Rocket body
Debris
Shape & HBR
Box + 2 Pan, 18.1 m
Radar Cross Section
36.964 m², Large (>1 m²)

Expand to show TLE details & history
Last TLE update: 5 hours ago

TLE from 5 hours ago
0 STARLINK-11306
1 61254U 24175M   26128.21435891  .00004653  00000-0  43273-4 0  9990
2 61254  53.1590 122.9626 0001024  74.4215 285.6916 15.69692355 93911
Epoch: 2026-05-08T05:08Z
TLE epoch observation values (Epoch: 2026-05-08T05:08:40.609Z)
Latitude
-0.00003°
Longitude
179.74402°
Altitude
360.506 km
Speed
7.694 km/s
True Right ascension
08h 11m 51s
True Declination
0° 00' 00"
Sunlit
Object was in daylight at epoch
Visualization orbit readout
Latitude
Unknown
Longitude
Unknown
Altitude
Unknown
Speed
Unknown
Apparent Right ascension
Unknown
Apparent Declination
Unknown
Sunlit
N/A
Visualization observer readout
Local Sidereal Time
18:39:59
Azimuth
Unknown
Elevation
Unknown
Doppler factor
Unknown
Orbital elements
Apogee altitude
360.728 km
Perigee altitude
359.348 km
Semi-major axis
6,738.175 km
Eccentricity
0.0001
Inclination
53.159°
RAAN
122.9626°
Arg. of periapsis
74.4215°
True anomaly
285.6803°
Mean anomaly
285.6916°
Eccentric anomaly
285.68595°
Mean motion
3.92401 °/min
Orbital period
91.74 mins
BSTAR
0.000043273
Loading maneuver chart data...
Computing Atmospheric mass density...
Loading historical data...
Loading historical data...
Loading historical data...
Loading historical data...
Loading historical data...
Loading historical data...
Loading historical data...

Documentation

Showing up to 5 results
|